When you browse on this site, cookies collect data to enhance your experience and personalize the content and advertising you see.
Visit our Privacy Policy to learn more. By continuing to use the site, you agree to this use of cookies and data.
  • In Hungary
  • List of Countries
  • For 7 days
  • Water Temperature
  • Weather Map
  • News
  • Weather Widgets
  • user-avatar
    Login

    Hourly Weather Duhovo

    Today, 18 September, Wednesday

    Time Temperature Precipitation Wind Pressure Humidity
    00:00 +5°C° 0 mm 0 mps 742 mmHg 96%
    01:00 +4°C° 0 mm 0 mps 742 mmHg 96%
    02:00 +4°C° 0 mm 0 mps 742 mmHg 96%
    03:00 +4°C° 0 mm 0 mps 742 mmHg 97%
    04:00 +4°C° 0 mm 0 mps 742 mmHg 97%
    05:00 +4°C° 0 mm 0 mps 742 mmHg 97%
    06:00 +6°C° 0 mm 1 mps 742 mmHg 96%
    07:00 +7°C° 0 mm 1 mps 743 mmHg 94%
    08:00 +7°C° 0 mm 2 mps 743 mmHg 93%
    09:00 +8°C° 0 mm 2 mps 743 mmHg 87%
    10:00 +9°C° 0 mm 2 mps 744 mmHg 81%
    11:00 +10°C° 0 mm 2 mps 744 mmHg 76%
    12:00 +12°C° 0.1 mm 2 mps 744 mmHg 72%
    13:00 +13°C° 0.1 mm 2 mps 745 mmHg 68%
    14:00 +12°C° 0.1 mm 3 mps 745 mmHg 65%
    15:00 +12°C° 0.3 mm 3 mps 745 mmHg 72%
    16:00 +11°C° 0.3 mm 3 mps 746 mmHg 78%
    17:00 +10°C° 0.3 mm 3 mps 747 mmHg 85%
    18:00 +9°C° 0.1 mm 3 mps 747 mmHg 88%
    19:00 +8°C° 0.1 mm 3 mps 748 mmHg 91%
    20:00 +7°C° 0.1 mm 3 mps 748 mmHg 94%
    21:00 +7°C° 0 mm 3 mps 749 mmHg 95%
    22:00 +6°C° 0 mm 2 mps 749 mmHg 96%
    23:00 +5°C° 0 mm 2 mps 750 mmHg 97%

    Tomorrow, 19 September, Thursday

    Time Temperature Precipitation Wind Pressure Humidity
    00:00 +5°C° 0 mm 2 mps 750 mmHg 97%
    01:00 +4°C° 0 mm 2 mps 751 mmHg 96%
    02:00 +4°C° 0 mm 2 mps 751 mmHg 96%
    03:00 +3°C° 0 mm 2 mps 752 mmHg 96%
    04:00 +4°C° 0 mm 1 mps 752 mmHg 96%
    05:00 +4°C° 0 mm 1 mps 752 mmHg 96%
    06:00 +5°C° 0 mm 1 mps 753 mmHg 93%
    07:00 +6°C° 0 mm 1 mps 753 mmHg 91%
    08:00 +7°C° 0 mm 1 mps 754 mmHg 89%
    09:00 +8°C° 0.1 mm 1 mps 754 mmHg 82%
    10:00 +9°C° 0.1 mm 1 mps 754 mmHg 75%
    11:00 +9°C° 0.1 mm 2 mps 754 mmHg 69%
    12:00 +9°C° 0.1 mm 2 mps 754 mmHg 66%
    13:00 +10°C° 0.1 mm 2 mps 754 mmHg 64%
    14:00 +10°C° 0.1 mm 2 mps 754 mmHg 61%
    15:00 +11°C° 0 mm 1 mps 754 mmHg 65%
    16:00 +11°C° 0 mm 1 mps 754 mmHg 69%
    17:00 +9°C° 0 mm 0 mps 754 mmHg 72%
    18:00 +8°C° 0 mm 0 mps 754 mmHg 77%
    19:00 +6°C° 0 mm 0 mps 754 mmHg 82%
    20:00 +4°C° 0 mm 0 mps 754 mmHg 87%
    21:00 +4°C° 0 mm 0 mps 755 mmHg 86%
    22:00 +4°C° 0 mm 0 mps 755 mmHg 86%
    23:00 +4°C° 0 mm 0 mps 755 mmHg 86%

    Day after tomorrow, 20 September, Friday

    Time Temperature Precipitation Wind Pressure Humidity
    00:00 +5°C° 0 mm 1 mps 755 mmHg 87%
    01:00 +5°C° 0 mm 1 mps 755 mmHg 88%
    02:00 +5°C° 0 mm 1 mps 755 mmHg 90%
    03:00 +4°C° 0.1 mm 2 mps 755 mmHg 91%
    04:00 +4°C° 0.1 mm 2 mps 755 mmHg 92%
    05:00 +3°C° 0.1 mm 3 mps 755 mmHg 93%
    06:00 +3°C° 0 mm 3 mps 755 mmHg 91%
    07:00 +4°C° 0 mm 4 mps 756 mmHg 88%
    08:00 +4°C° 0 mm 4 mps 756 mmHg 85%
    09:00 +4°C° 0.2 mm 4 mps 756 mmHg 84%
    10:00 +5°C° 0.2 mm 4 mps 756 mmHg 82%
    11:00 +6°C° 0.2 mm 4 mps 757 mmHg 81%
    12:00 +6°C° 0.2 mm 4 mps 757 mmHg 79%
    13:00 +7°C° 0.2 mm 5 mps 757 mmHg 77%
    14:00 +7°C° 0.2 mm 5 mps 757 mmHg 76%
    15:00 +7°C° 0.1 mm 4 mps 757 mmHg 76%
    16:00 +7°C° 0.1 mm 4 mps 757 mmHg 76%
    17:00 +8°C° 0.1 mm 3 mps 757 mmHg 76%
    18:00 +5°C° 0 mm 3 mps 758 mmHg 78%
    19:00 +5°C° 0 mm 2 mps 758 mmHg 80%
    20:00 +4°C° 0 mm 2 mps 758 mmHg 82%
    21:00 +3°C° 0 mm 2 mps 758 mmHg 81%
    22:00 +4°C° 0 mm 1 mps 758 mmHg 79%
    23:00 +4°C° 0 mm 1 mps 758 mmHg 78%

    21 September, Saturday

    Time Temperature Precipitation Wind Pressure Humidity
    00:00 +4°C° 0 mm 1 mps 758 mmHg 80%
    01:00 +3°C° 0 mm 2 mps 758 mmHg 82%
    02:00 +3°C° 0 mm 2 mps 758 mmHg 84%
    03:00 +3°C° 0 mm 2 mps 757 mmHg 84%
    04:00 +3°C° 0 mm 3 mps 757 mmHg 85%
    05:00 +4°C° 0 mm 3 mps 756 mmHg 85%
    06:00 +4°C° 0.6 mm 4 mps 756 mmHg 88%
    07:00 +4°C° 0.6 mm 4 mps 755 mmHg 91%
    08:00 +5°C° 0.6 mm 5 mps 754 mmHg 94%
    09:00 +5°C° 0.9 mm 5 mps 754 mmHg 95%
    10:00 +6°C° 0.9 mm 4 mps 753 mmHg 96%
    11:00 +6°C° 0.9 mm 4 mps 752 mmHg 97%
    12:00 +8°C° 0.3 mm 4 mps 752 mmHg 95%
    13:00 +9°C° 0.3 mm 5 mps 752 mmHg 94%
    14:00 +10°C° 0.3 mm 5 mps 751 mmHg 93%
    15:00 +10°C° 0.1 mm 5 mps 751 mmHg 92%
    16:00 +10°C° 0.1 mm 5 mps 750 mmHg 91%
    17:00 +11°C° 0.1 mm 4 mps 750 mmHg 91%
    18:00 +10°C° 0 mm 5 mps 750 mmHg 90%
    19:00 +10°C° 0 mm 5 mps 750 mmHg 89%
    20:00 +10°C° 0 mm 5 mps 750 mmHg 88%
    21:00 +10°C° 0 mm 5 mps 750 mmHg 87%
    22:00 +10°C° 0 mm 6 mps 750 mmHg 87%
    23:00 +10°C° 0 mm 6 mps 749 mmHg 86%

    22 September, Sunday

    Time Temperature Precipitation Wind Pressure Humidity
    00:00 +10°C° 0.1 mm 6 mps 750 mmHg 84%
    01:00 +10°C° 0.1 mm 6 mps 750 mmHg 82%
    02:00 +9°C° 0.1 mm 6 mps 750 mmHg 80%
    03:00 +7°C° 0 mm 6 mps 751 mmHg 76%
    04:00 +4°C° 0 mm 6 mps 752 mmHg 73%
    05:00 +2°C° 0 mm 6 mps 753 mmHg 69%
    06:00 +3°C° 0 mm 6 mps 753 mmHg 68%
    07:00 +3°C° 0 mm 6 mps 754 mmHg 68%
    08:00 +4°C° 0 mm 6 mps 755 mmHg 67%
    09:00 +5°C° 0 mm 6 mps 755 mmHg 64%
    10:00 +7°C° 0 mm 6 mps 756 mmHg 60%
    11:00 +8°C° 0 mm 6 mps 757 mmHg 57%
    12:00 +8°C° 0 mm 6 mps 757 mmHg 56%
    13:00 +9°C° 0 mm 5 mps 757 mmHg 54%
    14:00 +9°C° 0 mm 5 mps 757 mmHg 53%
    15:00 +8°C° 0 mm 5 mps 757 mmHg 56%
    16:00 +8°C° 0 mm 4 mps 758 mmHg 60%
    17:00 +8°C° 0 mm 3 mps 758 mmHg 63%
    18:00 +7°C° 0 mm 2 mps 758 mmHg 68%
    19:00 +5°C° 0 mm 2 mps 759 mmHg 72%
    20:00 +4°C° 0 mm 2 mps 759 mmHg 76%
    21:00 +4°C° 0 mm 1 mps 759 mmHg 77%
    22:00 +4°C° 0 mm 1 mps 759 mmHg 78%
    23:00 +3°C° 0 mm 1 mps 760 mmHg 79%

    23 September, Monday

    Time Temperature Precipitation Wind Pressure Humidity
    00:00 +3°C° 0 mm 1 mps 760 mmHg 79%
    01:00 +3°C° 0 mm 1 mps 760 mmHg 79%
    02:00 +3°C° 0 mm 1 mps 760 mmHg 79%
    03:00 +3°C° 0 mm 1 mps 760 mmHg 81%
    04:00 +3°C° 0 mm 1 mps 760 mmHg 83%
    05:00 +2°C° 0 mm 1 mps 760 mmHg 84%
    06:00 +3°C° 0 mm 0 mps 760 mmHg 80%
    07:00 +4°C° 0 mm 0 mps 760 mmHg 76%
    08:00 +5°C° 0 mm 0 mps 760 mmHg 71%
    09:00 +6°C° 0 mm 0 mps 760 mmHg 67%
    10:00 +8°C° 0 mm 0 mps 760 mmHg 63%
    11:00 +10°C° 0 mm 0 mps 760 mmHg 58%
    12:00 +10°C° 0.1 mm 0 mps 759 mmHg 57%
    13:00 +11°C° 0.1 mm 1 mps 759 mmHg 56%
    14:00 +11°C° 0.1 mm 1 mps 759 mmHg 55%
    15:00 +10°C° 0 mm 1 mps 758 mmHg 60%
    16:00 +9°C° 0 mm 1 mps 758 mmHg 64%
    17:00 +9°C° 0 mm 1 mps 758 mmHg 68%
    18:00 +7°C° 0 mm 1 mps 758 mmHg 72%
    19:00 +6°C° 0 mm 1 mps 758 mmHg 76%
    20:00 +4°C° 0 mm 1 mps 758 mmHg 80%
    21:00 +4°C° 0 mm 1 mps 758 mmHg 82%
    22:00 +3°C° 0 mm 1 mps 759 mmHg 83%
    23:00 +3°C° 0 mm 1 mps 759 mmHg 84%
    Show more